User: anonymous   Login
Location: A O Calhoun Middle School
(33.2198°N, 97.1397°W)
Time: 23:41:39
(UTC+00:00)
Language:

GPS 2-04 Rocket1 - Orbit

View from above orbital plane
View from above orbital plane
View from above satellite
View from above satellite

Ground track
Ground track

The orbit data is extracted from the following two-line orbital elements,

1 20303U 89085B   22140.40578494  .00018201  00000-0  47312-3 0  9990
2 20303  35.6387 266.2026 0081200 319.4828  39.9876 15.34707640776146
Epoch (UTC): 20 May 2022 09:44:19
Eccentricity: 0.0081200
inclination: 35.6387°
perigee height: 406 km
apogee height: 517 km
right ascension of ascending node: 266.2026°
argument of perigee: 319.4828°
revolutions per day: 15.34707640
mean anomaly at epoch: 39.9876°
orbit number at epoch: 77614

The dashed part of the orbit path shows where the satellite is in the earth's shadow,  

DLR